Location: Unspecified
(0.0000°N, 0.0000°E)
Time: 14:41:23
(UTC+00:00)

A-11 Canister half - Pass Details

Date: 27 May 2026
Orbit: 1515 x 1685 km, 47.2° (Epoch: 8 June)

Event Time Altitude Azimuth Distance (km) Brightness Sun altitude
Rises 12:27:33 0° 185° (S) 4,936 11.4 67.4°
Reaches altitude 10° 12:34:04 10° 156° (SSE) 3,946 11.0 66.8°
Maximum altitude 12:37:17 12° 136° (SE) 3,798 11.0 66.5°
Drops below altitude 10° 12:40:28 10° 117° (ESE) 3,931 11.1 66.2°
Sets 12:46:50 0° 88° (E) 4,889 11.5 65.5°
